Powrót do katalogu

STARLINK-6275

AktywnyŁącznośćVLEO
NORAD 56772·PAYLOAD·🇺🇸 United States

Wystrzelony May 31, 2023 z Vandenberg Space Force Base

Loading…

Następne Przeloty (najbliższe 24 godziny)

TLE

ŚwieżeSource: CelesTrak SupGP

Epoka: Sep 14, 2026, 20:58 UTC

1 56772C 23078F   26257.87409722  .00065639  00000+0  55006-2 0  2571
2 56772  69.9991 247.4270 0003962 261.5104 172.5917 14.98296445    12

Śledź STARLINK-6275 w czasie rzeczywistym z AllMySat

Download on the App Store